Location: Del Oro Observatory
(38.3044°N, 104.8119°W)
Time: 11:01:25
(UTC-06:00)

Cosmos 1602 Rocket - Visible Passes

Search period start: 25 September 2017 00:00
Search period end: 05 October 2017 00:00
Orbit: 603 x 634 km, 82.5° (Epoch: 25 September)

Date Brightness Start Highest point End Pass type
(mag) Time Alt. Az. Time Alt. Az. Time Alt. Az.
28 Sep 7.0 05:47:36 10° ESE 05:49:52 14° E 05:52:10 10° NE visible
28 Sep 7.0 19:12:12 10° NW 19:14:48 16° W 19:17:26 10° WSW visible
29 Sep 6.0 06:03:18 10° SSE 06:06:54 27° E 06:10:32 10° NNE visible
30 Sep 4.5 06:19:51 10° S 06:24:01 52° E 06:28:14 10° NNE visible
02 Oct 6.8 05:18:39 10° ESE 05:21:05 15° E 05:23:31 10° NE visible
03 Oct 5.8 05:34:26 10° SSE 05:38:07 28° E 05:41:49 10° NNE visible
04 Oct 4.3 05:51:03 10° S 05:55:14 55° E 05:59:29 10° NNE visible
